Time,TemperatureF,DewpointF,PressureIn,WindDirection,WindDirectionDegrees,WindSpeedMPH,WindSpeedGustMPH,Humidity,HourlyPrecipIn,Conditions,Clouds,dailyrainin,SoftwareType,DateUTC
2013-07-14 00:01:00,68.6,65.2,25.42,ENE,78,0.0,4.0,89,0.00,,---,0.00,VWS V14.01,2013-07-14 04:01:00,
2013-07-14 00:06:00,68.4,65.4,25.42,ENE,78,0.0,0.0,90,0.00,,---,0.00,VWS V14.01,2013-07-14 04:06:00,
2013-07-14 00:11:00,68.2,65.2,25.42,ENE,78,0.0,0.0,90,0.00,,---,0.00,VWS V14.01,2013-07-14 04:11:00,
2013-07-14 00:16:00,68.2,65.2,25.42,ENE,78,0.0,0.0,90,0.00,,---,0.00,VWS V14.01,2013-07-14 04:16:00,
2013-07-14 00:21:00,68.0,65.0,25.42,ENE,78,0.0,0.0,90,0.00,,---,0.00,VWS V14.01,2013-07-14 04:21:00,
2013-07-14 00:26:00,67.9,65.2,25.42,ENE,78,0.0,0.0,91,0.00,,---,0.00,VWS V14.01,2013-07-14 04:26:00,
2013-07-14 00:31:00,67.8,65.1,25.42,ENE,78,0.0,0.0,91,0.00,,---,0.00,VWS V14.01,2013-07-14 04:31:00,
2013-07-14 00:36:00,67.7,65.0,25.42,ENE,78,0.0,1.0,91,0.00,,---,0.00,VWS V14.01,2013-07-14 04:36:00,
2013-07-14 00:41:00,67.5,64.8,25.42,ENE,78,0.0,1.0,91,0.00,,---,0.00,VWS V14.01,2013-07-14 04:41:00,
2013-07-14 00:46:00,67.4,64.7,25.42,ENE,78,0.0,1.0,91,0.00,,---,0.00,VWS V14.01,2013-07-14 04:46:00,
2013-07-14 00:51:00,67.3,64.6,25.42,ENE,78,0.0,1.0,91,0.00,,---,0.00,VWS V14.01,2013-07-14 04:51:00,
2013-07-14 00:56:00,67.3,64.9,25.42,ENE,78,0.0,1.0,92,0.00,,---,0.00,VWS V14.01,2013-07-14 04:56:00,
2013-07-14 01:01:00,67.1,64.7,25.42,ENE,78,0.0,1.0,92,0.00,,---,0.00,VWS V14.01,2013-07-14 05:01:00,
2013-07-14 01:06:00,67.0,64.6,25.42,ENE,78,0.0,0.0,92,0.00,,---,0.00,VWS V14.01,2013-07-14 05:06:00,
2013-07-14 01:11:00,67.0,64.6,25.42,ENE,78,0.0,2.0,92,0.00,,---,0.00,VWS V14.01,2013-07-14 05:11:00,
2013-07-14 01:16:00,66.8,64.4,25.42,ENE,78,0.0,2.0,92,0.00,,---,0.00,VWS V14.01,2013-07-14 05:16:00,
2013-07-14 01:21:00,66.7,64.3,25.42,ENE,78,0.0,2.0,92,0.00,,---,0.00,VWS V14.01,2013-07-14 05:21:00,
2013-07-14 01:26:00,66.7,64.3,25.42,ENE,78,0.0,2.0,92,0.00,,---,0.00,VWS V14.01,2013-07-14 05:26:00,
2013-07-14 01:31:00,66.7,64.3,25.42,ENE,78,0.0,2.0,92,0.00,,---,0.00,VWS V14.01,2013-07-14 05:31:00,
2013-07-14 01:36:00,66.7,64.3,25.42,ENE,78,0.0,0.0,92,0.00,,---,0.00,VWS V14.01,2013-07-14 05:36:00,
2013-07-14 01:41:00,66.6,64.5,25.42,ENE,78,0.0,0.0,93,0.00,,---,0.00,VWS V14.01,2013-07-14 05:41:00,
2013-07-14 01:46:00,66.6,64.5,25.42,ENE,78,0.0,0.0,93,0.00,,---,0.00,VWS V14.01,2013-07-14 05:46:00,
2013-07-14 01:51:00,66.5,64.4,25.42,ENE,78,0.0,0.0,93,0.00,,---,0.00,VWS V14.01,2013-07-14 05:51:00,
2013-07-14 01:56:00,66.4,64.0,25.42,ENE,78,0.0,0.0,92,0.00,,---,0.00,VWS V14.01,2013-07-14 05:56:00,
2013-07-14 02:01:00,66.1,63.7,25.42,ENE,78,0.0,1.0,92,0.00,,---,0.00,VWS V14.01,2013-07-14 06:01:00,
2013-07-14 02:06:00,65.9,63.8,25.42,ENE,78,0.0,4.0,93,0.00,,---,0.00,VWS V14.01,2013-07-14 06:06:00,
2013-07-14 02:11:00,66.1,64.0,25.42,ENE,78,1.0,5.0,93,0.00,,---,0.00,VWS V14.01,2013-07-14 06:11:00,
2013-07-14 02:16:00,66.3,64.2,25.42,ENE,78,0.0,5.0,93,0.00,,---,0.00,VWS V14.01,2013-07-14 06:16:00,
2013-07-14 02:21:00,66.5,64.4,25.42,ENE,78,0.0,5.0,93,0.00,,---,0.00,VWS V14.01,2013-07-14 06:21:00,
2013-07-14 02:26:00,66.6,64.8,25.42,East,84,0.0,5.0,94,0.00,,---,0.00,VWS V14.01,2013-07-14 06:26:00,
2013-07-14 02:31:00,66.6,64.5,25.42,East,85,0.0,5.0,93,0.00,,---,0.00,VWS V14.01,2013-07-14 06:31:00,
2013-07-14 02:36:00,66.6,64.8,25.42,East,85,0.0,0.0,94,0.00,,---,0.00,VWS V14.01,2013-07-14 06:36:00,
2013-07-14 02:41:00,66.5,64.4,25.42,East,84,0.0,0.0,93,0.00,,---,0.00,VWS V14.01,2013-07-14 06:41:00,
2013-07-14 02:46:00,66.4,64.3,25.42,East,85,0.0,4.0,93,0.00,,---,0.00,VWS V14.01,2013-07-14 06:46:00,
2013-07-14 02:51:00,66.4,64.6,25.42,East,81,1.0,4.0,94,0.00,,---,0.00,VWS V14.01,2013-07-14 06:51:00,
2013-07-14 02:56:00,66.6,64.8,25.42,East,81,1.0,4.0,94,0.00,,---,0.00,VWS V14.01,2013-07-14 06:56:00,
2013-07-14 03:01:00,66.6,64.8,25.42,East,83,2.0,4.0,94,0.00,,---,0.00,VWS V14.01,2013-07-14 07:01:00,
2013-07-14 03:06:00,66.7,64.9,25.42,East,90,0.0,3.0,94,0.00,,---,0.00,VWS V14.01,2013-07-14 07:06:00,
2013-07-14 03:11:00,66.6,64.8,25.42,East,89,0.0,3.0,94,0.00,,---,0.00,VWS V14.01,2013-07-14 07:11:00,
2013-07-14 03:16:00,66.5,64.7,25.42,East,94,1.0,3.0,94,0.00,,---,0.00,VWS V14.01,2013-07-14 07:16:00,
2013-07-14 03:21:00,66.4,64.6,25.42,East,94,0.0,3.0,94,0.00,,---,0.00,VWS V14.01,2013-07-14 07:21:00,
2013-07-14 03:26:00,66.2,64.4,25.42,East,94,0.0,3.0,94,0.00,,---,0.00,VWS V14.01,2013-07-14 07:26:00,
2013-07-14 03:31:00,66.0,64.2,25.42,East,94,0.0,3.0,94,0.00,,---,0.00,VWS V14.01,2013-07-14 07:31:00,
2013-07-14 03:36:00,65.9,64.1,25.42,East,94,0.0,1.0,94,0.00,,---,0.00,VWS V14.01,2013-07-14 07:36:00,
2013-07-14 03:41:00,65.8,64.0,25.42,East,94,0.0,1.0,94,0.00,,---,0.00,VWS V14.01,2013-07-14 07:41:00,
2013-07-14 03:46:00,65.6,63.8,25.42,East,94,0.0,1.0,94,0.00,,---,0.00,VWS V14.01,2013-07-14 07:46:00,
2013-07-14 03:51:00,65.5,63.7,25.42,East,94,0.0,1.0,94,0.00,,---,0.00,VWS V14.01,2013-07-14 07:51:00,
2013-07-14 03:56:00,65.5,63.7,25.42,East,94,0.0,1.0,94,0.00,,---,0.00,VWS V14.01,2013-07-14 07:56:00,
2013-07-14 04:01:00,65.4,63.6,25.42,East,94,0.0,1.0,94,0.00,,---,0.00,VWS V14.01,2013-07-14 08:01:00,
2013-07-14 04:06:00,65.3,63.5,25.42,East,94,0.0,0.0,94,0.00,,---,0.00,VWS V14.01,2013-07-14 08:06:00,
2013-07-14 04:11:00,65.3,63.5,25.26,East,94,0.0,0.0,94,0.00,,---,0.00,VWS V14.01,2013-07-14 08:11:00,
2013-07-14 04:16:00,65.2,63.4,25.42,East,92,0.0,1.0,94,0.00,,---,0.00,VWS V14.01,2013-07-14 08:16:00,
2013-07-14 04:21:00,65.2,63.4,25.42,East,93,0.0,1.0,94,0.00,,---,0.00,VWS V14.01,2013-07-14 08:21:00,
2013-07-14 04:26:00,65.2,63.4,25.42,East,93,0.0,1.0,94,0.00,,---,0.00,VWS V14.01,2013-07-14 08:26:00,
2013-07-14 04:31:00,65.2,63.4,25.42,East,93,0.0,1.0,94,0.00,,---,0.00,VWS V14.01,2013-07-14 08:31:00,
2013-07-14 04:36:00,65.2,63.4,25.42,East,92,0.0,0.0,94,0.00,,---,0.00,VWS V14.01,2013-07-14 08:36:00,
2013-07-14 04:41:00,65.2,63.4,25.42,East,93,1.0,1.0,94,0.00,,---,0.00,VWS V14.01,2013-07-14 08:41:00,
2013-07-14 04:46:00,65.0,63.2,25.42,East,92,0.0,1.0,94,0.00,,---,0.00,VWS V14.01,2013-07-14 08:46:00,
2013-07-14 04:51:00,65.0,63.5,25.42,East,93,0.0,1.0,95,0.00,,---,0.00,VWS V14.01,2013-07-14 08:51:00,
2013-07-14 04:56:00,65.1,63.3,25.42,East,93,1.0,1.0,94,0.00,,---,0.00,VWS V14.01,2013-07-14 08:56:00,
2013-07-14 05:01:00,65.2,63.7,25.42,East,93,0.0,1.0,95,0.00,,---,0.00,VWS V14.01,2013-07-14 09:01:00,
2013-07-14 05:06:00,65.2,63.7,25.42,East,93,0.0,0.0,95,0.00,,---,0.00,VWS V14.01,2013-07-14 09:06:00,
2013-07-14 05:11:00,65.1,63.6,25.42,East,93,0.0,0.0,95,0.00,,---,0.00,VWS V14.01,2013-07-14 09:11:00,
2013-07-14 05:16:00,65.1,63.6,25.42,East,93,0.0,0.0,95,0.00,,---,0.00,VWS V14.01,2013-07-14 09:16:00,
2013-07-14 05:21:00,65.1,63.6,25.42,East,92,0.0,0.0,95,0.00,,---,0.00,VWS V14.01,2013-07-14 09:21:00,
2013-07-14 05:26:00,65.2,63.7,25.42,East,93,0.0,0.0,95,0.00,,---,0.00,VWS V14.01,2013-07-14 09:26:00,
2013-07-14 05:31:00,65.3,63.8,25.42,East,92,0.0,0.0,95,0.00,,---,0.00,VWS V14.01,2013-07-14 09:31:00,
2013-07-14 05:36:00,65.2,63.7,25.42,East,93,0.0,0.0,95,0.00,,---,0.00,VWS V14.01,2013-07-14 09:36:00,
2013-07-14 05:40:00,65.1,63.6,25.42,East,92,0.0,0.0,95,0.00,,---,0.00,VWS V14.01,2013-07-14 09:40:00,
2013-07-14 05:45:00,65.1,63.6,25.42,East,93,0.0,0.0,95,0.00,,---,0.00,VWS V14.01,2013-07-14 09:45:00,
2013-07-14 05:50:00,65.1,63.6,25.42,East,93,0.0,0.0,95,0.00,,---,0.00,VWS V14.01,2013-07-14 09:50:00,
2013-07-14 05:55:00,65.0,63.5,25.42,East,92,0.0,0.0,95,0.00,,---,0.00,VWS V14.01,2013-07-14 09:55:00,
2013-07-14 06:00:00,65.0,63.5,25.42,East,92,0.0,0.0,95,0.00,,---,0.00,VWS V14.01,2013-07-14 10:00:00,
2013-07-14 06:05:00,65.1,63.6,25.42,East,93,0.0,0.0,95,0.00,,---,0.00,VWS V14.01,2013-07-14 10:05:00,
2013-07-14 06:10:00,65.1,63.6,25.42,East,92,0.0,0.0,95,0.00,,---,0.00,VWS V14.01,2013-07-14 10:10:00,
2013-07-14 06:15:00,65.1,63.6,25.42,East,92,0.0,0.0,95,0.00,,---,0.00,VWS V14.01,2013-07-14 10:15:00,
2013-07-14 06:20:00,65.0,63.5,25.42,East,93,0.0,0.0,95,0.00,,---,0.00,VWS V14.01,2013-07-14 10:20:00,
2013-07-14 06:25:00,64.9,63.4,25.42,East,93,0.0,0.0,95,0.00,,---,0.00,VWS V14.01,2013-07-14 10:25:00,
2013-07-14 06:30:00,65.2,63.7,25.42,East,92,0.0,0.0,95,0.00,,---,0.00,VWS V14.01,2013-07-14 10:30:00,
2013-07-14 06:35:00,65.5,64.0,25.42,East,93,0.0,0.0,95,0.00,,---,0.00,VWS V14.01,2013-07-14 10:35:00,
2013-07-14 06:40:00,65.6,64.1,25.42,East,93,0.0,1.0,95,0.00,,---,0.00,VWS V14.01,2013-07-14 10:40:00,
2013-07-14 06:45:00,65.8,64.3,25.42,East,93,0.0,1.0,95,0.00,,---,0.00,VWS V14.01,2013-07-14 10:45:00,
2013-07-14 06:50:00,65.7,64.2,25.42,East,92,0.0,1.0,95,0.00,,---,0.00,VWS V14.01,2013-07-14 10:50:00,
2013-07-14 06:55:00,65.7,64.2,25.42,East,93,0.0,1.0,95,0.00,,---,0.00,VWS V14.01,2013-07-14 10:55:00,
2013-07-14 07:00:00,65.8,64.3,25.42,East,92,0.0,1.0,95,0.00,,---,0.00,VWS V14.01,2013-07-14 11:00:00,
2013-07-14 07:05:00,66.0,64.5,25.42,East,93,0.0,1.0,95,0.00,,---,0.00,VWS V14.01,2013-07-14 11:05:00,
2013-07-14 07:10:00,66.1,64.6,25.42,East,93,1.0,3.0,95,0.00,,---,0.00,VWS V14.01,2013-07-14 11:10:00,
2013-07-14 07:15:00,66.4,64.9,25.42,East,93,1.0,3.0,95,0.00,,---,0.00,VWS V14.01,2013-07-14 11:15:00,
2013-07-14 07:20:00,66.9,65.7,25.42,East,92,0.0,3.0,96,0.00,,---,0.00,VWS V14.01,2013-07-14 11:20:00,
2013-07-14 07:25:00,67.3,66.1,25.42,East,92,0.0,3.0,96,0.00,,---,0.00,VWS V14.01,2013-07-14 11:25:00,
2013-07-14 07:30:00,67.7,66.5,25.42,East,93,0.0,3.0,96,0.00,,---,0.00,VWS V14.01,2013-07-14 11:30:00,
2013-07-14 07:35:00,68.0,66.8,25.42,East,92,0.0,1.0,96,0.00,,---,0.00,VWS V14.01,2013-07-14 11:35:00,
2013-07-14 07:40:00,68.2,67.0,25.42,East,93,0.0,1.0,96,0.00,,---,0.00,VWS V14.01,2013-07-14 11:40:00,
2013-07-14 07:45:00,68.3,67.1,25.42,East,95,2.0,2.0,96,0.00,,---,0.00,VWS V14.01,2013-07-14 11:45:00,
2013-07-14 07:46:00,68.3,67.1,25.42,East,96,0.0,2.0,96,0.00,,---,0.00,VWS V14.01,2013-07-14 11:46:00,
2013-07-14 07:51:00,68.5,67.3,25.42,ESE,113,2.0,4.0,96,0.00,,---,0.00,VWS V14.01,2013-07-14 11:51:00,
2013-07-14 07:56:00,68.7,67.5,25.42,ESE,105,0.0,4.0,96,0.00,,---,0.00,VWS V14.01,2013-07-14 11:56:00,
2013-07-14 08:01:00,68.9,67.7,25.42,ESE,103,1.0,4.0,96,0.00,,---,0.00,VWS V14.01,2013-07-14 12:01:00,
2013-07-14 08:06:00,69.1,67.9,25.42,ESE,105,1.0,4.0,96,0.00,,---,0.00,VWS V14.01,2013-07-14 12:06:00,
2013-07-14 08:11:00,69.3,68.1,25.41,East,82,1.0,4.0,96,0.00,,---,0.00,VWS V14.01,2013-07-14 12:11:00,
2013-07-14 08:16:00,69.8,68.6,25.41,East,91,2.0,4.0,96,0.00,,---,0.00,VWS V14.01,2013-07-14 12:16:00,
2013-07-14 08:21:00,70.0,68.5,25.41,East,94,0.0,4.0,95,0.00,,---,0.00,VWS V14.01,2013-07-14 12:21:00,
2013-07-14 08:26:00,70.3,69.1,25.41,East,84,1.0,4.0,96,0.00,,---,0.00,VWS V14.01,2013-07-14 12:26:00,
2013-07-14 08:31:00,70.6,69.1,25.41,East,86,6.0,6.0,95,0.00,,---,0.00,VWS V14.01,2013-07-14 12:31:00,
2013-07-14 08:36:00,71.0,69.5,25.41,East,94,2.0,7.0,95,0.00,,---,0.00,VWS V14.01,2013-07-14 12:36:00,
2013-07-14 08:41:00,71.4,69.6,25.41,ESE,113,4.0,7.0,94,0.00,,---,0.00,VWS V14.01,2013-07-14 12:41:00,
2013-07-14 08:46:00,71.8,70.0,25.41,East,93,5.0,7.0,94,0.00,,---,0.00,VWS V14.01,2013-07-14 12:46:00,
2013-07-14 08:51:00,72.3,70.2,25.41,ESE,117,1.0,7.0,93,0.00,,---,0.00,VWS V14.01,2013-07-14 12:51:00,
2013-07-14 08:56:00,72.7,70.2,25.41,ESE,105,2.0,7.0,92,0.00,,---,0.00,VWS V14.01,2013-07-14 12:56:00,
2013-07-14 09:01:00,73.1,70.6,25.41,ESE,102,0.0,7.0,92,0.00,,---,0.00,VWS V14.01,2013-07-14 13:01:00,
2013-07-14 09:06:00,73.5,70.7,25.41,East,84,0.0,4.0,91,0.00,,---,0.00,VWS V14.01,2013-07-14 13:06:00,
2013-07-14 09:11:00,74.1,71.0,25.41,ESE,103,2.0,4.0,90,0.00,,---,0.00,VWS V14.01,2013-07-14 13:11:00,
2013-07-14 09:16:00,75.1,71.6,25.41,ESE,110,3.0,4.0,89,0.00,,---,0.00,VWS V14.01,2013-07-14 13:16:00,
2013-07-14 09:21:00,76.0,71.9,25.41,East,98,3.0,5.0,87,0.00,,---,0.00,VWS V14.01,2013-07-14 13:21:00,
2013-07-14 09:26:00,76.6,72.1,25.41,East,100,3.0,5.0,86,0.00,,---,0.00,VWS V14.01,2013-07-14 13:26:00,
2013-07-14 09:31:00,77.2,72.0,25.41,ESE,121,3.0,3.0,84,0.00,,---,0.00,VWS V14.01,2013-07-14 13:31:00,
2013-07-14 09:36:00,77.6,72.0,25.41,East,96,0.0,5.0,83,0.00,,---,0.00,VWS V14.01,2013-07-14 13:36:00,
2013-07-14 09:41:00,77.9,72.3,25.41,East,90,1.0,5.0,83,0.00,,---,0.00,VWS V14.01,2013-07-14 13:41:00,
2013-07-14 09:46:00,78.4,72.8,25.41,ESE,103,4.0,6.0,83,0.00,,---,0.00,VWS V14.01,2013-07-14 13:46:00,
2013-07-14 09:51:00,78.9,72.6,25.41,East,101,3.0,6.0,81,0.00,,---,0.00,VWS V14.01,2013-07-14 13:51:00,
2013-07-14 09:56:00,79.1,72.8,25.41,ESE,117,7.0,7.0,81,0.00,,---,0.00,VWS V14.01,2013-07-14 13:56:00,
2013-07-14 10:01:00,79.1,72.4,25.41,ESE,114,4.0,7.0,80,0.00,,---,0.00,VWS V14.01,2013-07-14 14:01:00,
2013-07-14 10:06:00,79.3,71.8,25.41,SE,134,3.0,9.0,78,0.00,,---,0.00,VWS V14.01,2013-07-14 14:06:00,
2013-07-14 10:11:00,79.6,72.5,25.41,SE,136,9.0,9.0,79,0.00,,---,0.00,VWS V14.01,2013-07-14 14:11:00,
2013-07-14 10:16:00,79.9,72.8,25.41,SE,126,7.0,10.0,79,0.00,,---,0.00,VWS V14.01,2013-07-14 14:16:00,
2013-07-14 10:21:00,79.7,72.2,25.41,ESE,121,5.0,10.0,78,0.00,,---,0.00,VWS V14.01,2013-07-14 14:21:00,
2013-07-14 10:26:00,80.0,72.9,25.41,SE,144,6.0,11.0,79,0.00,,---,0.00,VWS V14.01,2013-07-14 14:26:00,
2013-07-14 10:31:00,80.3,72.4,25.41,ESE,107,3.0,11.0,77,0.00,,---,0.00,VWS V14.01,2013-07-14 14:31:00,
2013-07-14 10:36:00,80.5,72.6,25.41,East,99,5.0,7.0,77,0.00,,---,0.00,VWS V14.01,2013-07-14 14:36:00,
2013-07-14 10:41:00,80.7,72.8,25.41,ESE,115,8.0,8.0,77,0.00,,---,0.00,VWS V14.01,2013-07-14 14:41:00,
2013-07-14 10:46:00,80.9,73.0,25.41,East,83,6.0,8.0,77,0.00,,---,0.00,VWS V14.01,2013-07-14 14:46:00,
2013-07-14 10:51:00,81.2,73.7,25.41,ESE,117,7.0,9.0,78,0.00,,---,0.00,VWS V14.01,2013-07-14 14:51:00,
2013-07-14 10:56:00,81.4,73.5,25.41,East,93,4.0,9.0,77,0.00,,---,0.00,VWS V14.01,2013-07-14 14:56:00,
2013-07-14 11:01:00,81.6,73.3,25.41,ESE,111,9.0,11.0,76,0.00,,---,0.00,VWS V14.01,2013-07-14 15:01:00,
2013-07-14 11:06:00,81.6,73.3,25.41,ESE,106,6.0,9.0,76,0.00,,---,0.00,VWS V14.01,2013-07-14 15:06:00,
2013-07-14 11:11:00,81.8,73.5,25.41,ESE,119,6.0,11.0,76,0.00,,---,0.00,VWS V14.01,2013-07-14 15:11:00,
2013-07-14 11:16:00,82.0,73.7,25.41,ESE,117,3.0,11.0,76,0.00,,---,0.00,VWS V14.01,2013-07-14 15:16:00,
2013-07-14 11:21:00,82.3,74.0,25.41,ESE,111,5.0,11.0,76,0.00,,---,0.00,VWS V14.01,2013-07-14 15:21:00,
2013-07-14 11:26:00,82.1,73.0,25.41,ESE,103,7.0,11.0,74,0.00,,---,0.00,VWS V14.01,2013-07-14 15:26:00,
2013-07-14 11:31:00,82.1,73.8,25.41,ESE,104,4.0,11.0,76,0.00,,---,0.00,VWS V14.01,2013-07-14 15:31:00,
2013-07-14 11:36:00,82.4,73.7,25.41,ESE,107,3.0,7.0,75,0.00,,---,0.00,VWS V14.01,2013-07-14 15:36:00,
2013-07-14 11:41:00,82.9,74.2,25.41,ESE,111,7.0,9.0,75,0.00,,---,0.00,VWS V14.01,2013-07-14 15:41:00,
2013-07-14 11:46:00,83.0,74.3,25.41,East,101,3.0,9.0,75,0.00,,---,0.00,VWS V14.01,2013-07-14 15:46:00,
2013-07-14 11:51:00,83.2,74.5,25.41,SE,140,5.0,9.0,75,0.00,,---,0.00,VWS V14.01,2013-07-14 15:51:00,
2013-07-14 11:56:00,83.3,73.8,25.41,ESE,102,7.0,11.0,73,0.00,,---,0.00,VWS V14.01,2013-07-14 15:56:00,
2013-07-14 12:01:00,83.3,73.8,25.41,East,82,7.0,11.0,73,0.00,,---,0.00,VWS V14.01,2013-07-14 16:01:00,
2013-07-14 12:06:00,83.3,73.8,25.41,ESE,122,6.0,10.0,73,0.00,,---,0.00,VWS V14.01,2013-07-14 16:06:00,
2013-07-14 12:11:00,83.6,74.0,25.41,East,101,3.0,10.0,73,0.00,,---,0.00,VWS V14.01,2013-07-14 16:11:00,
2013-07-14 12:16:00,84.0,74.4,25.41,ESE,115,4.0,10.0,73,0.00,,---,0.00,VWS V14.01,2013-07-14 16:16:00,
2013-07-14 12:21:00,84.4,74.4,25.41,SE,137,12.0,12.0,72,0.00,,---,0.00,VWS V14.01,2013-07-14 16:21:00,
2013-07-14 12:26:00,83.5,73.5,25.41,SE,144,5.0,12.0,72,0.00,,---,0.00,VWS V14.01,2013-07-14 16:26:00,
2013-07-14 12:31:00,83.5,73.1,25.41,ESE,119,6.0,12.0,71,0.00,,---,0.00,VWS V14.01,2013-07-14 16:31:00,
2013-07-14 12:36:00,83.8,73.4,25.41,ESE,111,7.0,12.0,71,0.00,,---,0.00,VWS V14.01,2013-07-14 16:36:00,
2013-07-14 12:41:00,83.9,73.9,25.41,ESE,109,4.0,12.0,72,0.00,,---,0.00,VWS V14.01,2013-07-14 16:41:00,
2013-07-14 12:46:00,83.9,73.5,25.41,SE,126,6.0,12.0,71,0.00,,---,0.00,VWS V14.01,2013-07-14 16:46:00,
2013-07-14 12:51:00,83.5,73.1,25.41,ESE,120,5.0,12.0,71,0.00,,---,0.00,VWS V14.01,2013-07-14 16:51:00,
2013-07-14 12:56:00,83.8,74.2,25.41,East,95,6.0,12.0,73,0.00,,---,0.00,VWS V14.01,2013-07-14 16:56:00,
2013-07-14 13:01:00,83.8,73.4,25.41,ESE,107,5.0,12.0,71,0.00,,---,0.00,VWS V14.01,2013-07-14 17:01:00,
2013-07-14 13:06:00,83.3,73.8,25.41,ESE,102,5.0,7.0,73,0.00,,---,0.00,VWS V14.01,2013-07-14 17:06:00,
2013-07-14 13:11:00,84.0,75.2,25.41,ESE,122,4.0,10.0,75,0.00,,---,0.00,VWS V14.01,2013-07-14 17:11:00,
2013-07-14 13:16:00,84.5,74.5,25.41,East,101,1.0,10.0,72,0.00,,---,0.00,VWS V14.01,2013-07-14 17:16:00,
2013-07-14 13:21:00,84.6,74.2,25.41,SE,128,4.0,10.0,71,0.00,,---,0.00,VWS V14.01,2013-07-14 17:21:00,
2013-07-14 13:26:00,84.8,73.9,25.41,SE,128,7.0,11.0,70,0.00,,---,0.00,VWS V14.01,2013-07-14 17:26:00,
2013-07-14 13:31:00,84.9,74.4,25.41,ESE,115,7.0,11.0,71,0.00,,---,0.00,VWS V14.01,2013-07-14 17:31:00,
2013-07-14 13:36:00,85.2,75.2,25.41,ESE,110,6.0,9.0,72,0.00,,---,0.00,VWS V14.01,2013-07-14 17:36:00,
2013-07-14 13:41:00,84.8,73.5,25.41,SSE,153,2.0,9.0,69,0.00,,---,0.00,VWS V14.01,2013-07-14 17:41:00,
2013-07-14 13:46:00,84.9,73.6,25.41,SE,127,5.0,10.0,69,0.00,,---,0.00,VWS V14.01,2013-07-14 17:46:00,
2013-07-14 13:51:00,85.0,73.7,25.41,East,96,2.0,10.0,69,0.00,,---,0.00,VWS V14.01,2013-07-14 17:51:00,
2013-07-14 13:56:00,85.2,74.3,25.41,East,99,4.0,10.0,70,0.00,,---,0.00,VWS V14.01,2013-07-14 17:56:00,
2013-07-14 14:01:00,85.6,74.3,25.41,East,83,3.0,10.0,69,0.00,,---,0.00,VWS V14.01,2013-07-14 18:01:00,
2013-07-14 14:06:00,85.9,74.6,25.41,ESE,117,5.0,13.0,69,0.00,,---,0.00,VWS V14.01,2013-07-14 18:06:00,
2013-07-14 14:11:00,85.7,74.4,25.41,SE,137,5.0,13.0,69,0.00,,---,0.00,VWS V14.01,2013-07-14 18:11:00,
2013-07-14 14:16:00,85.7,74.8,25.41,East,94,6.0,13.0,70,0.00,,---,0.00,VWS V14.01,2013-07-14 18:16:00,
2013-07-14 14:21:00,86.0,73.8,25.41,East,101,5.0,13.0,67,0.00,,---,0.00,VWS V14.01,2013-07-14 18:21:00,
2013-07-14 14:26:00,86.1,76.0,25.41,SSE,159,5.0,13.0,72,0.00,,---,0.00,VWS V14.01,2013-07-14 18:26:00,
2013-07-14 14:31:00,86.7,76.2,25.41,SE,142,7.0,13.0,71,0.00,,---,0.00,VWS V14.01,2013-07-14 18:31:00,
2013-07-14 14:36:00,86.6,75.7,25.41,SE,126,6.0,9.0,70,0.00,,---,0.00,VWS V14.01,2013-07-14 18:36:00,
2013-07-14 14:41:00,86.9,75.9,25.41,SE,125,4.0,9.0,70,0.00,,---,0.00,VWS V14.01,2013-07-14 18:41:00,
2013-07-14 14:46:00,86.9,75.5,25.41,ESE,119,6.0,10.0,69,0.00,,---,0.00,VWS V14.01,2013-07-14 18:46:00,
2013-07-14 14:51:00,86.5,74.7,25.41,SSE,153,5.0,11.0,68,0.00,,---,0.00,VWS V14.01,2013-07-14 18:51:00,
2013-07-14 14:56:00,86.6,73.9,25.41,ESE,121,3.0,11.0,66,0.00,,---,0.00,VWS V14.01,2013-07-14 18:56:00,
2013-07-14 15:01:00,86.3,74.5,25.41,SE,146,5.0,11.0,68,0.00,,---,0.00,VWS V14.01,2013-07-14 19:01:00,
2013-07-14 15:06:00,86.1,75.2,25.41,SE,126,4.0,7.0,70,0.00,,---,0.00,VWS V14.01,2013-07-14 19:06:00,
2013-07-14 15:11:00,85.7,74.4,25.41,East,80,6.0,7.0,69,0.00,,---,0.00,VWS V14.01,2013-07-14 19:11:00,
2013-07-14 15:15:00,85.7,75.2,25.41,ESE,103,5.0,8.0,71,0.00,,---,0.00,VWS V14.01,2013-07-14 19:15:00,
2013-07-14 15:21:00,86.0,74.7,25.41,East,92,5.0,8.0,69,0.00,,---,0.00,VWS V14.01,2013-07-14 19:21:00,
2013-07-14 15:26:00,85.9,74.6,25.41,East,93,5.0,8.0,69,0.00,,---,0.00,VWS V14.01,2013-07-14 19:26:00,
2013-07-14 15:31:00,85.6,75.1,25.41,ESE,110,4.0,8.0,71,0.00,,---,0.00,VWS V14.01,2013-07-14 19:31:00,
2013-07-14 15:36:00,85.2,73.9,25.41,East,100,2.0,6.0,69,0.00,,---,0.00,VWS V14.01,2013-07-14 19:36:00,
2013-07-14 15:41:00,85.1,74.2,25.41,SE,125,6.0,10.0,70,0.00,,---,0.00,VWS V14.01,2013-07-14 19:41:00,
2013-07-14 15:46:00,85.4,74.5,25.41,ESE,106,2.0,10.0,70,0.00,,---,0.00,VWS V14.01,2013-07-14 19:46:00,
2013-07-14 15:51:00,85.8,75.3,25.41,ESE,111,6.0,10.0,71,0.00,,---,0.00,VWS V14.01,2013-07-14 19:51:00,
2013-07-14 15:56:00,86.3,75.4,25.41,East,86,5.0,10.0,70,0.00,,---,0.00,VWS V14.01,2013-07-14 19:56:00,
2013-07-14 16:01:00,86.2,74.8,25.41,ESE,122,5.0,10.0,69,0.00,,---,0.00,VWS V14.01,2013-07-14 20:01:00,
2013-07-14 16:06:00,86.0,75.1,25.41,ESE,113,5.0,10.0,70,0.00,,---,0.00,VWS V14.01,2013-07-14 20:06:00,
2013-07-14 16:11:00,86.5,74.7,25.41,ESE,117,4.0,10.0,68,0.00,,---,0.00,VWS V14.01,2013-07-14 20:11:00,
2013-07-14 16:16:00,86.8,74.1,25.41,ESE,119,2.0,10.0,66,0.00,,---,0.00,VWS V14.01,2013-07-14 20:16:00,
2013-07-14 16:21:00,86.7,74.9,25.41,SE,132,5.0,10.0,68,0.00,,---,0.00,VWS V14.01,2013-07-14 20:21:00,
2013-07-14 16:26:00,86.5,74.2,25.41,East,92,4.0,10.0,67,0.00,,---,0.00,VWS V14.01,2013-07-14 20:26:00,
2013-07-14 16:31:00,86.3,74.9,25.41,East,95,4.0,10.0,69,0.00,,---,0.00,VWS V14.01,2013-07-14 20:31:00,
2013-07-14 16:36:00,86.2,74.0,25.41,SE,125,5.0,6.0,67,0.00,,---,0.00,VWS V14.01,2013-07-14 20:36:00,
2013-07-14 16:41:00,86.1,74.3,25.41,East,94,5.0,9.0,68,0.00,,---,0.00,VWS V14.01,2013-07-14 20:41:00,
2013-07-14 16:46:00,85.7,74.4,25.41,East,88,2.0,9.0,69,0.00,,---,0.00,VWS V14.01,2013-07-14 20:46:00,
2013-07-14 16:51:00,85.4,73.6,25.41,East,86,2.0,9.0,68,0.00,,---,0.00,VWS V14.01,2013-07-14 20:51:00,
2013-07-14 16:56:00,85.2,73.9,25.41,East,101,4.0,9.0,69,0.00,,---,0.00,VWS V14.01,2013-07-14 20:56:00,
2013-07-14 17:01:00,85.2,75.2,25.41,East,88,2.0,9.0,72,0.00,,---,0.00,VWS V14.01,2013-07-14 21:01:00,
2013-07-14 17:06:00,85.2,74.3,25.41,East,82,4.0,5.0,70,0.00,,---,0.00,VWS V14.01,2013-07-14 21:06:00,
2013-07-14 17:10:00,85.2,74.3,25.41,ENE,76,2.0,5.0,70,0.00,,---,0.00,VWS V14.01,2013-07-14 21:10:00,
2013-07-14 17:15:00,85.3,75.2,25.41,ENE,78,2.0,5.0,72,0.00,,---,0.00,VWS V14.01,2013-07-14 21:15:00,
2013-07-14 17:20:00,85.4,74.5,25.41,East,95,2.0,5.0,70,0.00,,---,0.00,VWS V14.01,2013-07-14 21:20:00,
2013-07-14 17:25:00,85.5,75.0,25.41,ESE,104,2.0,5.0,71,0.00,,---,0.00,VWS V14.01,2013-07-14 21:25:00,
2013-07-14 17:30:00,85.6,75.5,25.41,East,98,0.0,5.0,72,0.00,,---,0.00,VWS V14.01,2013-07-14 21:30:00,
2013-07-14 17:35:00,86.0,74.7,25.41,East,86,2.0,7.0,69,0.00,,---,0.00,VWS V14.01,2013-07-14 21:35:00,
2013-07-14 17:40:00,86.1,74.8,25.41,East,90,2.0,7.0,69,0.00,,---,0.00,VWS V14.01,2013-07-14 21:40:00,
2013-07-14 17:46:00,86.0,74.7,25.41,East,88,1.0,7.0,69,0.00,,---,0.00,VWS V14.01,2013-07-14 21:46:00,
2013-07-14 17:51:00,86.1,76.0,25.41,East,96,0.0,7.0,72,0.00,,---,0.00,VWS V14.01,2013-07-14 21:51:00,
2013-07-14 17:56:00,86.1,76.4,25.41,East,91,3.0,7.0,73,0.00,,---,0.00,VWS V14.01,2013-07-14 21:56:00,
2013-07-14 18:01:00,86.3,75.4,25.41,ESE,103,5.0,7.0,70,0.00,,---,0.00,VWS V14.01,2013-07-14 22:01:00,
2013-07-14 18:06:00,86.5,75.1,25.41,East,91,5.0,7.0,69,0.00,,---,0.00,VWS V14.01,2013-07-14 22:06:00,
2013-07-14 18:11:00,86.3,74.9,25.41,East,90,2.0,7.0,69,0.00,,---,0.00,VWS V14.01,2013-07-14 22:11:00,
2013-07-14 18:16:00,86.1,75.6,25.41,East,96,1.0,7.0,71,0.00,,---,0.00,VWS V14.01,2013-07-14 22:16:00,
2013-07-14 18:21:00,85.9,75.4,25.41,East,94,4.0,7.0,71,0.00,,---,0.00,VWS V14.01,2013-07-14 22:21:00,
2013-07-14 18:26:00,85.5,75.0,25.41,East,86,0.0,7.0,71,0.00,,---,0.00,VWS V14.01,2013-07-14 22:26:00,
2013-07-14 18:30:00,85.4,75.3,25.41,East,84,1.0,7.0,72,0.00,,---,0.00,VWS V14.01,2013-07-14 22:30:00,
2013-07-14 18:35:00,85.7,75.6,25.41,East,86,1.0,4.0,72,0.00,,---,0.00,VWS V14.01,2013-07-14 22:35:00,
2013-07-14 18:40:00,86.3,75.8,25.41,East,101,5.0,6.0,71,0.00,,---,0.00,VWS V14.01,2013-07-14 22:40:00,
2013-07-14 18:45:00,86.6,75.2,25.41,East,91,6.0,7.0,69,0.00,,---,0.00,VWS V14.01,2013-07-14 22:45:00,
2013-07-14 18:50:00,86.2,74.8,25.41,ENE,78,3.0,9.0,69,0.00,,---,0.00,VWS V14.01,2013-07-14 22:50:00,
2013-07-14 18:55:00,85.8,75.3,25.41,East,87,2.0,9.0,71,0.00,,---,0.00,VWS V14.01,2013-07-14 22:55:00,
2013-07-14 19:00:00,85.4,75.3,25.41,East,87,4.0,9.0,72,0.00,,---,0.00,VWS V14.01,2013-07-14 23:00:00,
2013-07-14 19:05:00,85.4,74.9,25.41,East,83,1.0,4.0,71,0.00,,---,0.00,VWS V14.01,2013-07-14 23:05:00,
2013-07-14 19:10:00,85.6,76.0,25.41,East,94,1.0,4.0,73,0.00,,---,0.00,VWS V14.01,2013-07-14 23:10:00,
2013-07-14 19:15:00,85.8,75.7,25.41,East,85,2.0,6.0,72,0.00,,---,0.00,VWS V14.01,2013-07-14 23:15:00,
2013-07-14 19:20:00,85.8,75.7,25.41,East,90,5.0,6.0,72,0.00,,---,0.00,VWS V14.01,2013-07-14 23:20:00,
2013-07-14 19:25:00,85.6,75.5,25.41,NE,56,4.0,6.0,72,0.00,,---,0.00,VWS V14.01,2013-07-14 23:25:00,
2013-07-14 19:30:00,85.5,75.0,25.41,ENE,70,0.0,7.0,71,0.00,,---,0.00,VWS V14.01,2013-07-14 23:30:00,
2013-07-14 19:35:00,85.3,75.2,25.41,ENE,69,0.0,2.0,72,0.00,,---,0.00,VWS V14.01,2013-07-14 23:35:00,
2013-07-14 19:40:00,85.1,75.9,25.41,ENE,69,2.0,3.0,74,0.00,,---,0.00,VWS V14.01,2013-07-14 23:40:00,
2013-07-14 19:45:00,84.6,75.4,25.41,East,94,3.0,3.0,74,0.00,,---,0.00,VWS V14.01,2013-07-14 23:45:00,
2013-07-14 19:50:00,84.2,75.4,25.41,East,93,0.0,4.0,75,0.00,,---,0.00,VWS V14.01,2013-07-14 23:50:00,
2013-07-14 19:55:00,83.9,74.7,25.41,ENE,72,0.0,4.0,74,0.00,,---,0.00,VWS V14.01,2013-07-14 23:55:00,
2013-07-14 20:00:00,83.8,75.4,25.41,ENE,72,0.0,4.0,76,0.00,,---,0.00,VWS V14.01,2013-07-15 00:00:00,
2013-07-14 20:05:00,83.9,75.9,25.41,ENE,72,0.0,1.0,77,0.00,,---,0.00,VWS V14.01,2013-07-15 00:05:00,
2013-07-14 20:10:00,84.1,76.5,25.41,ENE,68,0.0,2.0,78,0.00,,---,0.00,VWS V14.01,2013-07-15 00:10:00,
2013-07-14 20:15:00,84.2,77.0,25.41,ENE,69,0.0,2.0,79,0.00,,---,0.00,VWS V14.01,2013-07-15 00:15:00,
2013-07-14 20:20:00,84.0,76.8,25.41,ENE,68,0.0,2.0,79,0.00,,---,0.00,VWS V14.01,2013-07-15 00:20:00,
2013-07-14 20:25:00,83.6,76.0,25.41,ENE,70,0.0,4.0,78,0.00,,---,0.00,VWS V14.01,2013-07-15 00:25:00,
2013-07-14 20:30:00,83.2,76.0,25.41,ENE,59,0.0,4.0,79,0.00,,---,0.00,VWS V14.01,2013-07-15 00:30:00,
2013-07-14 20:35:00,82.8,76.0,25.41,NE,56,0.0,1.0,80,0.00,,---,0.00,VWS V14.01,2013-07-15 00:35:00,
2013-07-14 20:40:00,82.4,75.6,25.41,ENE,61,0.0,2.0,80,0.00,,---,0.00,VWS V14.01,2013-07-15 00:40:00,
2013-07-14 20:45:00,82.0,76.0,25.41,ENE,61,0.0,2.0,82,0.00,,---,0.00,VWS V14.01,2013-07-15 00:45:00,
2013-07-14 20:50:00,81.6,75.6,25.41,ENE,61,0.0,2.0,82,0.00,,---,0.00,VWS V14.01,2013-07-15 00:50:00,
2013-07-14 20:55:00,81.1,75.4,25.41,NE,52,0.0,3.0,83,0.00,,---,0.00,VWS V14.01,2013-07-15 00:55:00,
2013-07-14 21:00:00,80.8,75.5,25.41,NE,52,0.0,3.0,84,0.00,,---,0.00,VWS V14.01,2013-07-15 01:00:00,
2013-07-14 21:05:00,80.5,75.2,25.41,NE,51,0.0,2.0,84,0.00,,---,0.00,VWS V14.01,2013-07-15 01:05:00,
2013-07-14 21:10:00,80.2,74.9,25.41,North,355,0.0,2.0,84,0.00,,---,0.00,VWS V14.01,2013-07-15 01:10:00,
2013-07-14 21:15:00,79.9,74.6,25.41,NNE,13,1.0,4.0,84,0.00,,---,0.00,VWS V14.01,2013-07-15 01:15:00,
2013-07-14 21:20:00,79.6,74.7,25.41,NNE,21,0.0,5.0,85,0.00,,---,0.00,VWS V14.01,2013-07-15 01:20:00,
2013-07-14 21:25:00,79.3,74.4,25.41,NNE,21,0.0,5.0,85,0.00,,---,0.00,VWS V14.01,2013-07-15 01:25:00,
2013-07-14 21:30:00,79.1,74.2,25.41,NNE,21,0.0,5.0,85,0.00,,---,0.00,VWS V14.01,2013-07-15 01:30:00,
2013-07-14 21:35:00,78.8,74.3,25.41,NNE,21,0.0,2.0,86,0.00,,---,0.00,VWS V14.01,2013-07-15 01:35:00,
2013-07-14 21:40:00,78.7,74.2,25.41,NNE,21,0.0,2.0,86,0.00,,---,0.00,VWS V14.01,2013-07-15 01:40:00,
2013-07-14 21:45:00,78.4,73.9,25.41,NNE,21,0.0,2.0,86,0.00,,---,0.00,VWS V14.01,2013-07-15 01:45:00,
2013-07-14 21:50:00,78.2,74.0,25.41,NNE,21,0.0,2.0,87,0.00,,---,0.00,VWS V14.01,2013-07-15 01:50:00,
2013-07-14 21:55:00,77.9,73.7,25.41,NNE,21,0.0,2.0,87,0.00,,---,0.00,VWS V14.01,2013-07-15 01:55:00,
2013-07-14 22:00:00,77.8,74.0,25.41,NNE,21,0.0,2.0,88,0.00,,---,0.00,VWS V14.01,2013-07-15 02:00:00,
2013-07-14 22:05:00,77.6,73.8,25.41,NNE,21,0.0,0.0,88,0.00,,---,0.00,VWS V14.01,2013-07-15 02:05:00,
2013-07-14 22:10:00,77.5,73.7,25.41,NNE,21,0.0,1.0,88,0.00,,---,0.00,VWS V14.01,2013-07-15 02:10:00,
2013-07-14 22:15:00,77.4,73.6,25.41,NNE,21,0.0,1.0,88,0.00,,---,0.00,VWS V14.01,2013-07-15 02:15:00,
2013-07-14 22:20:00,77.3,73.8,25.41,NNE,21,0.0,1.0,89,0.00,,---,0.00,VWS V14.01,2013-07-15 02:20:00,
2013-07-14 22:25:00,77.2,73.7,25.41,NNE,21,0.0,1.0,89,0.00,,---,0.00,VWS V14.01,2013-07-15 02:25:00,
2013-07-14 22:30:00,77.1,73.6,25.41,NNE,21,0.0,3.0,89,0.00,,---,0.00,VWS V14.01,2013-07-15 02:30:00,
2013-07-14 22:35:00,77.1,73.6,25.41,NNE,21,1.0,3.0,89,0.00,,---,0.00,VWS V14.01,2013-07-15 02:35:00,
2013-07-14 22:40:00,77.1,73.9,25.41,ESE,103,0.0,3.0,90,0.00,,---,0.00,VWS V14.01,2013-07-15 02:40:00,
2013-07-14 22:45:00,77.1,73.9,25.41,ESE,103,0.0,3.0,90,0.00,,---,0.00,VWS V14.01,2013-07-15 02:45:00,
2013-07-14 22:50:00,77.2,74.0,25.41,East,82,0.0,3.0,90,0.00,,---,0.00,VWS V14.01,2013-07-15 02:50:00,
2013-07-14 22:55:00,77.2,74.0,25.41,East,82,0.0,3.0,90,0.00,,---,0.00,VWS V14.01,2013-07-15 02:55:00,
2013-07-14 23:00:00,77.3,74.1,25.41,East,82,0.0,3.0,90,0.00,,---,0.00,VWS V14.01,2013-07-15 03:00:00,
2013-07-14 23:05:00,77.3,74.1,25.41,East,82,0.0,1.0,90,0.00,,---,0.00,VWS V14.01,2013-07-15 03:05:00,
2013-07-14 23:10:00,77.2,73.7,25.41,East,82,0.0,2.0,89,0.00,,---,0.00,VWS V14.01,2013-07-15 03:10:00,
2013-07-14 23:15:00,77.1,73.6,25.41,East,82,1.0,3.0,89,0.00,,---,0.00,VWS V14.01,2013-07-15 03:15:00,
2013-07-14 23:20:00,77.0,73.5,25.41,East,82,0.0,3.0,89,0.00,,---,0.00,VWS V14.01,2013-07-15 03:20:00,
2013-07-14 23:25:00,76.8,73.3,25.41,East,82,0.0,3.0,89,0.00,,---,0.00,VWS V14.01,2013-07-15 03:25:00,
2013-07-14 23:30:00,76.7,73.2,25.41,East,94,0.0,3.0,89,0.00,,---,0.00,VWS V14.01,2013-07-15 03:30:00,
2013-07-14 23:35:00,76.6,73.4,25.41,East,94,0.0,1.0,90,0.00,,---,0.00,VWS V14.01,2013-07-15 03:35:00,
2013-07-14 23:40:00,76.5,73.3,25.41,East,94,0.0,1.0,90,0.00,,---,0.00,VWS V14.01,2013-07-15 03:40:00,
2013-07-14 23:45:00,76.3,73.2,25.41,East,94,0.0,1.0,90,0.00,,---,0.00,VWS V14.01,2013-07-15 03:45:00,
2013-07-14 23:50:00,76.1,73.0,25.41,East,94,0.0,1.0,90,0.00,,---,0.00,VWS V14.01,2013-07-15 03:50:00,
2013-07-14 23:55:00,76.0,72.9,25.41,East,94,0.0,1.0,90,0.00,,---,0.00,VWS V14.01,2013-07-15 03:55:00,